Minot AFB, ND

6:15 AM CST on November 13, 2019 (GMT -0600)
Minot Air Force Base

Weather History for KMIB - September, 2019

Change the Weather History Date:

Monday, September 9, 2019

  Actual Average Record
Temperature  
Mean Temperature 54 °F -  
Max Temperature 55 °F 71 °F 89 °F (1998)
Min Temperature 52 °F 46 °F 31 °F (2006)
Degree Days  
Heating Degree Days 12    
Growing Degree Days 4 (Base 50)    
Moisture  
Dew Point 53 °F    
Average Humidity 96    
Maximum Humidity 100    
Minimum Humidity 82    
Precipitation  
Precipitation 0.49 in - - ()
Sea Level Pressure  
Sea Level Pressure 29.87 in    
Wind  
Wind Speed 10 mph (ENE)    
Max Wind Speed 18 mph    
Max Gust Speed -    
Visibility 5 miles    
Events Rain    
Averages and records for this station are not official NWS values.
T = Trace of Precipitation, MM = Missing Value Source: NWS Daily Summary

Daily Weather History Graph

Daily Weather History Graph

Search for Another Location

Airport or City:

Astronomy

Sep. 09, 2019 Rise Set
Actual Time 7:13 AM CDT 8:10 PM CDT
Civil Twilight 6:41 AM CDT 8:42 PM CDT
Nautical Twilight 6:03 AM CDT 9:20 PM CDT
Astronomical Twilight 5:23 AM CDT 10:01 PM CDT
Moon 6:29 PM CDT (9/9) 2:23 AM CDT (9/9)
Length of Visible Light 14h 00m
Length of Day
12h 57m
Waxing Gibbous, 83% of the Moon is Illuminated
Sep 9
Waxing Gibbous
Sep 13
Full
Sep 21
Last Quarter
Sep 28
New
Oct 5
First Quarter

Hourly Weather History & Observations

Time (CDT) Temp. Dew Point Humidity Pressure Visibility Wind Dir Wind Speed Gust Speed Precip Events Conditions
12:01 AM 53.6 °F 50.0 °F 88% 30.06 in 10.0 mi ESE 4.6 mph - N/A   Mostly Cloudy
12:56 AM 54.5 °F 50.4 °F 86% 30.04 in 10.0 mi ESE 5.8 mph - N/A   Overcast
1:56 AM 54.7 °F 50.5 °F 86% 30.03 in 10.0 mi East 9.2 mph - N/A   Overcast
2:01 AM 55.4 °F 50.0 °F 82% 30.03 in 10.0 mi East 10.4 mph - N/A   Overcast
2:21 AM 55.4 °F 50.0 °F 82% 30.01 in 10.0 mi East 8.1 mph - N/A   Overcast
2:56 AM 55.0 °F 50.9 °F 86% 30.00 in 10.0 mi East 9.2 mph - N/A   Overcast
3:56 AM 55.0 °F 50.9 °F 86% 29.96 in 10.0 mi East 10.4 mph - N/A   Overcast
4:21 AM 55.4 °F 51.8 °F 88% 29.96 in 10.0 mi East 11.5 mph - N/A   Overcast
4:46 AM 55.4 °F 50.0 °F 82% 29.96 in 10.0 mi East 12.7 mph - N/A   Overcast
4:56 AM 54.5 °F 50.7 °F 87% 29.96 in 10.0 mi East 11.5 mph - N/A   Overcast
5:01 AM 55.4 °F 50.0 °F 82% 29.96 in 10.0 mi East 10.4 mph - N/A   Overcast
5:11 AM 53.6 °F 50.0 °F 88% 29.96 in 10.0 mi East 10.4 mph - N/A   Overcast
5:39 AM 53.6 °F 50.0 °F 88% 29.95 in 7.0 mi East 10.4 mph - N/A   Light Drizzle
5:49 AM 53.6 °F 50.0 °F 88% 29.95 in 4.0 mi East 10.4 mph - N/A   Light Drizzle
5:50 AM 53.6 °F 50.0 °F 88% 29.95 in 4.0 mi East 10.4 mph - N/A   Overcast
5:56 AM 53.4 °F 51.1 °F 92% 29.94 in 4.0 mi East 10.4 mph - 0.00 in   Overcast
6:26 AM 53.6 °F 51.8 °F 94% 29.94 in 3.0 mi East 10.4 mph - N/A   Overcast
6:30 AM 53.6 °F 51.8 °F 94% 29.94 in 3.0 mi East 11.5 mph - N/A   Overcast
6:35 AM 53.6 °F 51.8 °F 94% 29.94 in 4.0 mi East 11.5 mph - N/A   Overcast
6:40 AM 53.6 °F 51.8 °F 94% 29.94 in 3.0 mi East 12.7 mph - N/A   Overcast
6:50 AM 53.6 °F 51.8 °F 94% 29.94 in 6.0 mi East 10.4 mph - N/A   Overcast
6:56 AM 52.9 °F 51.4 °F 95% 29.94 in 8.0 mi East 10.4 mph - N/A   Overcast
7:56 AM 53.1 °F 52.0 °F 96% 29.94 in 9.0 mi East 12.7 mph - N/A   Overcast
8:01 AM 53.6 °F 51.8 °F 94% 29.93 in 10.0 mi East 12.7 mph - N/A   Overcast
8:56 AM 53.4 °F 52.5 °F 97% 29.93 in 10.0 mi East 13.8 mph - N/A   Overcast
9:56 AM 53.8 °F 52.7 °F 96% 29.92 in 10.0 mi East 11.5 mph - N/A   Overcast
10:01 AM 53.6 °F 53.6 °F 100% 29.92 in 9.0 mi East 10.4 mph - N/A Rain Light Rain
10:18 AM 53.6 °F 53.6 °F 100% 29.90 in 2.2 mi East 10.4 mph - N/A Rain Light Rain
10:21 AM 53.6 °F 53.6 °F 100% 29.90 in 1.1 mi East 10.4 mph - N/A Rain Light Rain
10:31 AM 53.6 °F 53.6 °F 100% 29.90 in 1.6 mi East 12.7 mph - N/A Rain Light Rain
10:41 AM 53.6 °F 53.6 °F 100% 29.89 in 1.8 mi East 13.8 mph - N/A Rain Light Rain
10:51 AM 53.6 °F 53.6 °F 100% 29.88 in 5.0 mi East 15.0 mph - N/A Rain Light Rain
10:56 AM 54.0 °F 53.1 °F 97% 29.88 in 5.0 mi East 15.0 mph - 0.03 in Rain Light Rain
10:58 AM 53.6 °F 53.6 °F 100% 29.88 in 4.0 mi East 13.8 mph - N/A Rain Light Rain
11:06 AM 53.6 °F 53.6 °F 100% 29.88 in 2.5 mi East 12.7 mph - N/A Rain Rain
11:16 AM 53.6 °F 53.6 °F 100% 29.88 in 1.6 mi East 13.8 mph - N/A Rain Rain
11:46 AM 53.6 °F 53.6 °F 100% 29.87 in 2.2 mi East 11.5 mph - N/A Rain Rain
11:56 AM 54.3 °F 53.4 °F 97% 29.87 in 3.0 mi East 12.7 mph - 0.14 in Rain Light Rain
12:16 PM 55.4 °F 53.6 °F 94% 29.87 in 5.0 mi East 11.5 mph - N/A Rain Light Rain
12:36 PM 55.4 °F 53.6 °F 94% 29.86 in 5.0 mi East 11.5 mph - N/A Rain Light Rain
12:56 PM 54.9 °F 54.0 °F 97% 29.85 in 3.0 mi East 11.5 mph - 0.06 in Rain Light Rain
1:06 PM 55.4 °F 53.6 °F 94% 29.85 in 2.8 mi East 12.7 mph - N/A Rain Light Rain
1:46 PM 55.4 °F 53.6 °F 94% 29.84 in 3.0 mi East 15.0 mph - N/A Rain Light Rain
1:56 PM 54.9 °F 54.0 °F 97% 29.83 in 3.0 mi East 17.3 mph - 0.08 in Rain Light Rain
2:06 PM 55.4 °F 53.6 °F 94% 29.83 in 2.0 mi East 17.3 mph - N/A Rain Light Rain
2:56 PM 55.6 °F 55.0 °F 98% 29.81 in 3.0 mi East 12.7 mph - 0.07 in Rain Light Rain
3:16 PM 55.4 °F 55.4 °F 100% 29.81 in 3.0 mi East 10.4 mph - N/A Rain Light Rain
3:21 PM 55.4 °F 55.4 °F 100% 29.81 in 3.0 mi East 16.1 mph - N/A Rain Light Rain
3:31 PM 55.4 °F 55.4 °F 100% 29.80 in 2.2 mi East 15.0 mph - N/A Rain Light Rain
3:51 PM 55.4 °F 55.4 °F 100% 29.81 in 2.5 mi East 15.0 mph - N/A Rain Light Rain
3:56 PM 55.8 °F 54.9 °F 97% 29.81 in 2.8 mi East 12.7 mph - 0.05 in Rain Light Rain
3:59 PM 55.4 °F 55.4 °F 100% 29.80 in 2.8 mi East 12.7 mph - N/A Rain Light Rain
4:09 PM 55.4 °F 55.4 °F 100% 29.80 in 3.0 mi East 16.1 mph - N/A Rain Light Rain
4:19 PM 55.4 °F 55.4 °F 100% 29.80 in 4.0 mi East 18.4 mph - N/A   Light Drizzle
4:29 PM 55.4 °F 55.4 °F 100% 29.80 in 6.0 mi East 13.8 mph - N/A   Light Drizzle
4:31 PM 55.4 °F 55.4 °F 100% 29.80 in 6.0 mi East 12.7 mph - N/A   Light Drizzle
4:41 PM 55.4 °F 55.4 °F 100% 29.79 in 5.0 mi East 17.3 mph - N/A   Light Drizzle
4:56 PM 55.6 °F 54.7 °F 97% 29.79 in 4.0 mi East 15.0 mph - 0.01 in   Light Drizzle
5:22 PM 55.4 °F 53.6 °F 94% 29.78 in 5.0 mi East 13.8 mph - N/A   Overcast
5:27 PM 55.4 °F 53.6 °F 94% 29.78 in 6.0 mi East 17.3 mph - N/A   Light Drizzle
5:32 PM 55.4 °F 53.6 °F 94% 29.78 in 6.0 mi East 17.3 mph - N/A Rain Light Rain
5:52 PM 55.4 °F 53.6 °F 94% 29.79 in 2.8 mi East 11.5 mph - N/A Rain Light Rain
5:56 PM 54.5 °F 53.6 °F 97% 29.79 in 3.0 mi East 11.5 mph - 0.04 in Rain Light Rain
6:01 PM 55.4 °F 53.6 °F 94% 29.79 in 4.0 mi East 9.2 mph - N/A Rain Light Rain
6:41 PM 53.6 °F 53.6 °F 100% 29.79 in 10.0 mi ENE 9.2 mph - N/A   Light Drizzle
6:46 PM 53.6 °F 53.6 °F 100% 29.79 in 10.0 mi East 10.4 mph - N/A   Light Drizzle
6:51 PM 53.6 °F 53.6 °F 100% 29.80 in 10.0 mi ENE 6.9 mph - N/A   Overcast
6:56 PM 54.3 °F 53.4 °F 97% 29.80 in 10.0 mi ENE 5.8 mph - 0.01 in   Overcast
7:10 PM 53.6 °F 53.6 °F 100% 29.80 in 10.0 mi ENE 6.9 mph - N/A   Overcast
7:41 PM 53.6 °F 53.6 °F 100% 29.80 in 10.0 mi ENE 6.9 mph - N/A Rain Light Rain
7:56 PM 54.3 °F 53.4 °F 97% 29.79 in 4.0 mi NE 6.9 mph - 0.00 in Rain Light Rain
8:01 PM 53.6 °F 53.6 °F 100% 29.80 in 3.0 mi NE 6.9 mph - N/A Rain Light Rain
8:11 PM 53.6 °F 53.6 °F 100% 29.80 in 2.0 mi NNE 5.8 mph - N/A   Light Drizzle
8:17 PM 53.6 °F 53.6 °F 100% 29.80 in 2.0 mi NNE 6.9 mph - N/A   Overcast
8:37 PM 53.6 °F 53.6 °F 100% 29.80 in 3.0 mi NNE 5.8 mph - N/A   Overcast
8:47 PM 53.6 °F 53.6 °F 100% 29.80 in 3.0 mi NE 5.8 mph - N/A   Overcast
9:56 PM 54.3 °F 54.0 °F 99% 29.80 in 3.0 mi NNE 5.8 mph - N/A   Overcast
10:06 PM 55.4 °F 53.6 °F 94% 29.81 in 2.8 mi NNE 4.6 mph - N/A   Overcast
10:14 PM 55.4 °F 53.6 °F 94% 29.81 in 2.5 mi NNE 4.6 mph - N/A Rain Light Rain
10:56 PM 54.9 °F 54.5 °F 99% 29.82 in 1.5 mi NNE 3.5 mph - 0.00 in   Overcast
11:06 PM 55.4 °F 55.4 °F 100% 29.82 in 2.2 mi North 3.5 mph - N/A   Overcast
11:26 PM 55.4 °F 55.4 °F 100% 29.82 in 3.0 mi North 3.5 mph - N/A   Overcast
11:55 PM 55.4 °F 55.4 °F 100% 29.82 in 3.0 mi North 4.6 mph - N/A   Light Drizzle
11:56 PM 54.9 °F 54.5 °F 99% 29.82 in 3.0 mi North 3.5 mph - N/A   Light Drizzle